Location: Les Gen�tes
(46.3104°N, 1.5969°E)
Time: 22:19:27
(UTC+00:00)

ATLAS CENTAUR R/B - Pass Details

Date: 01 June 2020
Orbit: 475 x 672 km, 64.7° (Epoch: 13 July)

Event Time Altitude Azimuth Distance (km) Brightness Sun altitude
Exits shadow 23:35:44 29° 250° (WSW) 1,087 2.6 -21.4°
Maximum altitude 23:37:37 51° 311° (NW) 727 2.1 -21.4°
Drops below altitude 10° 23:41:38 10° 28° (NNE) 1,825 4.8 -21.4°
Sets 23:43:49 0° 34° (NE) 2,688 5.7 -21.4°
